Wetbulb
79.13 78.37 78.60 79.12 78.56 74.95 74.83 75.89 78.37 77.95 77.54 77.04 76.09 76.52 76.23 75.07 72.50 72.23 70.31 68.94 69.52 68.82
79.41 78.98 78.12 80.77 78.19 76.99 77.42 77.72 76.90 77.36 77.52 75.96 73.85 76.49 75.76 73.29 71.48 70.57 70.87 68.07 68.90 69.12
79.33 79.48 80.82 80.18 78.11 77.57 78.09 79.07 77.59 77.62 76.45 76.00 75.88 75.33 76.17 72.95 71.38 69.38 69.33 67.37 68.15 67.55
78.91 79.48 79.53 78.71 78.96 78.31 80.10 78.65 78.41 76.98 76.09 75.89 75.71 75.96 75.26 71.41 70.64 68.36 67.70 67.18 65.44 65.83
78.87 78.89 78.49 78.28 78.63 78.60 79.28 79.16 77.73 77.44 76.18 75.93 75.14 75.14 74.12 71.76 68.38 67.34 66.55 65.13 64.70 64.48
78.57 78.43 78.01 77.93 78.66 78.38 79.40 78.87 77.80 77.10 75.62 75.27 74.55 74.07 72.68 69.51 67.88 66.86 65.75 65.68 65.18 64.84
78.11 78.49 78.54 78.59 78.53 78.67 79.10 78.12 77.38 76.50 75.80 74.92 74.25 73.33 69.17 66.91 65.38 64.21 61.73 62.09 62.63 64.34
79.80 80.24 80.05 80.05 78.40 79.55 78.76 78.21 77.42 76.05 75.25 74.52 73.28 70.39 66.51 65.50 64.09 61.56 61.30 62.33 64.65 63.83
79.67 79.63 79.11 79.51 79.46 79.42 78.03 77.70 76.73 75.50 74.67 71.84 71.00 65.59 65.28 64.31 62.09 62.60 62.09 63.17 63.42 62.91
80.48 79.18 79.24 79.35 78.58 77.48 76.40 76.70 75.97 74.82 72.84 71.22 69.65 63.16 63.64 64.06 61.93 61.88 63.13 65.52 62.49 61.10
78.79 78.09 78.27 78.25 77.79 77.38 76.44 75.49 74.36 73.71 72.64 71.67 65.09 61.65 61.68 63.17 61.62 63.82 65.39 64.86 64.14 64.52
75.22 78.47 77.11 76.40 76.75 76.95 75.94 74.33 73.17 72.86 71.73 71.59 62.98 59.72 60.18 61.63 63.61 64.33 65.14 64.36 65.32 64.24
73.81 75.80 77.48 77.31 77.15 76.83 75.58 73.38 72.28 72.85 72.23 69.75 63.78 58.57 58.34 60.48 62.88 63.13 62.61 63.96 64.99 63.04
76.02 72.46 75.72 78.54 77.94 76.28 74.44 73.59 72.15 71.38 71.32 68.27 64.86 60.18 56.87 57.61 63.32 62.27 61.25 61.74 62.65 62.00
MSLP
1011.88 1011.76 1011.52 1012.41 1012.78 1013.06 1014.01 1014.55 1015.18 1015.47 1015.54 1015.77 1016.18 1016.40 1016.69 1017.25 1017.56 1017.93 1018.07 1018.14 1018.05 1017.93
1011.53 1011.84 1011.93 1012.09 1012.70 1013.43 1013.87 1014.17 1014.89 1015.39 1015.72 1015.92 1016.28 1016.28 1016.68 1017.16 1017.61 1018.00 1018.12 1018.33 1018.35 1018.33
1011.16 1011.71 1012.01 1012.24 1012.83 1013.27 1013.60 1014.03 1014.75 1015.40 1015.70 1015.97 1016.42 1016.65 1017.03 1017.11 1017.48 1018.03 1018.23 1018.44 1018.69 1018.79
1010.79 1011.30 1011.74 1011.97 1012.40 1012.92 1013.28 1013.85 1014.66 1015.24 1015.70 1015.97 1016.33 1016.76 1017.22 1017.58 1017.99 1018.31 1018.54 1018.84 1019.18 1019.37
1010.17 1010.59 1011.14 1011.55 1012.02 1012.52 1013.10 1013.77 1014.57 1015.17 1015.63 1015.97 1016.40 1016.72 1017.06 1017.57 1018.10 1018.55 1018.88 1019.18 1019.27 1019.43
1009.53 1010.07 1010.55 1011.13 1011.59 1012.20 1012.81 1013.46 1014.18 1014.93 1015.34 1015.82 1016.38 1016.81 1017.08 1017.68 1017.99 1018.43 1018.83 1019.23 1019.37 1019.37
1008.79 1009.53 1010.17 1010.67 1011.14 1011.74 1012.36 1013.04 1013.86 1014.65 1015.17 1015.77 1016.22 1016.58 1017.14 1017.84 1018.20 1018.49 1018.70 1019.11 1019.27 1019.34
1008.64 1009.41 1010.18 1010.87 1011.30 1011.49 1012.07 1012.64 1013.38 1014.20 1014.91 1015.46 1015.88 1016.36 1017.08 1017.74 1018.09 1018.46 1018.83 1018.95 1019.32 1019.56
1008.22 1008.80 1009.43 1010.01 1010.69 1011.45 1012.15 1012.53 1013.03 1013.72 1014.66 1015.30 1015.76 1016.27 1016.84 1017.44 1017.83 1018.31 1018.64 1019.05 1019.66 1019.87
1008.39 1008.81 1009.16 1009.57 1010.13 1010.73 1011.65 1012.41 1013.15 1013.43 1014.30 1015.09 1015.62 1016.23 1016.93 1017.39 1017.62 1018.02 1018.50 1018.76 1019.28 1019.52
1007.77 1007.96 1008.48 1009.04 1009.87 1010.54 1011.37 1011.76 1012.99 1013.61 1014.23 1014.99 1016.07 1016.50 1017.13 1017.56 1017.50 1017.67 1017.91 1018.56 1018.81 1019.21
1007.72 1008.29 1008.59 1008.65 1009.04 1009.51 1010.73 1011.67 1012.63 1013.25 1013.78 1014.31 1015.62 1016.24 1016.67 1017.30 1017.30 1017.46 1017.59 1017.80 1018.45 1018.95
1007.80 1008.45 1008.39 1008.74 1009.40 1009.42 1010.55 1011.05 1011.58 1012.53 1013.61 1014.00 1015.26 1015.96 1016.33 1017.05 1016.77 1017.08 1017.43 1017.58 1018.11 1018.52
1007.06 1007.36 1007.85 1008.05 1008.37 1009.19 1010.16 1010.55 1011.18 1012.25 1012.83 1013.34 1014.74 1016.13 1016.39 1016.32 1016.44 1016.84 1016.96 1017.45 1017.96 1018.41
Wind_Speed
11 7 5 6 4 5 4 6 8 5 5 6 6 4 4 2 4 4 4 5 5 5
11 10 7 5 7 4 5 5 10 7 6 6 5 6 5 4 5 3 2 1 4 5
12 11 7 7 9 7 6 5 8 8 7 7 5 5 4 5 5 4 2 5 4 6
11 12 10 8 9 8 6 8 8 8 7 7 6 6 4 8 6 4 5 6 5 5
12 12 12 9 9 8 7 7 8 9 8 7 6 6 6 4 7 6 5 5 4 3
12 11 12 11 10 11 9 9 9 9 9 9 7 7 7 7 6 6 6 4 4 4
13 12 10 11 10 11 11 11 10 10 9 9 8 8 8 7 6 6 6 5 5 5
10 9 8 7 9 9 11 11 11 11 9 10 9 9 9 9 8 7 5 5 5 7
10 10 11 10 10 9 10 11 12 12 11 11 8 18 15 12 9 8 7 6 6 6
7 9 9 9 11 11 13 12 11 13 12 11 8 19 16 16 10 9 7 7 7 7
11 14 14 13 13 11 10 12 10 10 11 11 9 17 18 17 11 10 9 8 7 5
4 5 10 12 14 12 11 12 11 10 12 13 12 18 20 15 12 10 8 8 6 9
7 6 9 10 10 10 10 12 12 13 13 12 12 17 18 14 9 11 8 8 7 8
9 11 11 10 8 10 13 11 12 12 12 9 11 13 16 18 7 9 9 8 7 6
Wind_Direction
211 230 241 188 130 114 147 183 162 183 166 143 138 148 116 167 81 42 51 9 341 332
196 212 213 222 127 157 177 146 160 182 160 133 169 153 157 127 112 138 129 106 355 326
195 199 232 153 165 179 186 149 156 163 152 151 175 147 137 142 120 108 347 87 22 350
192 190 200 178 167 190 175 138 161 159 163 167 167 155 119 73 101 102 82 82 61 31
186 188 186 198 181 176 167 151 159 161 175 180 161 156 136 168 119 125 116 95 144 147
184 187 186 191 180 179 174 163 157 173 179 175 162 165 134 120 126 124 124 138 126 114
183 184 193 185 185 185 165 162 163 169 173 170 164 148 120 129 125 128 142 163 151 129
159 168 175 194 195 176 166 165 164 162 173 162 154 147 144 153 146 142 137 142 122 88
156 170 179 193 182 176 173 173 167 166 164 161 170 145 155 160 149 142 149 131 108 125
167 180 190 186 168 179 180 179 180 164 164 171 161 150 154 161 152 153 174 162 147 177
188 184 183 183 187 187 183 169 169 167 170 162 158 160 160 172 163 174 172 147 174 155
17 254 195 193 189 177 170 167 173 175 179 177 158 174 175 189 179 158 167 156 172 156
186 228 194 194 190 168 174 174 177 177 189 175 165 187 183 195 177 163 165 167 138 123
214 202 213 194 178 178 186 192 181 177 169 156 164 191 199 204 186 172 171 173 168 145